www.pogodaiklimat.ru
ПОГОДА в Бербанке
Время
и дата
10:53 12.06
11:53 12.06
12:53 12.06
13:53 12.06
14:53 12.06
15:53 12.06
16:53 12.06
17:53 12.06
18:53 12.06
19:53 12.06
20:53 12.06
21:53 12.06
22:53 12.06
23:53 12.06
00:53 13.06
01:19 13.06
01:53 13.06
01:55 13.06
02:53 13.06
03:53 13.06
04:53 13.06
05:53 13.06
06:21 13.06
06:53 13.06
07:53 13.06
08:32 13.06
08:53 13.06
09:30 13.06
09:53 13.06
10:53 13.06
11:53 13.06
12:53 13.06
13:53 13.06
14:53 13.06
15:53 13.06
16:53 13.06
17:53 13.06
18:53 13.06
19:53 13.06
20:53 13.06
21:53 13.06
22:53 13.06
23:21 13.06
23:53 13.06
00:16 14.06
00:53 14.06
01:53 14.06
02:53 14.06
Ветер
(напр.,м/с)
Видим. Явления Облачность Т
(С)
Тd
(С)
f
(%)
Тe
(С)
Тes
(С)
Комфортность P
(гПа)
Po
(гПа)
Тmin
(С)
Tmax
(С)
R
(мм)
R24
(мм)
S
(см)
ЮВ 3 10 км мгла ясно +21.1 +15.0 68 +24 +39 комфорт 1014.6 987.4
нст 3 16 км ясно +23.3 +15.0 60 +27 +45 душно 1013.9 987.0
ЮВ 4 16 км ясно +25.6 +14.4 50 +28 +43 жарко 1013.1 986.0
Ю 4 16 км ясно +26.7 +14.4 47 +29 +43 жарко 1012.5 985.7
Ю 4 16 км ясно +26.1 +14.4 48 +28 +40 жарко 1012.2 985.4
Ю 5 16 км ясно +25.6 +14.4 50 +28 +35 жарко 1011.9 985.0 +18.9 +26.7
Ю 4 16 км ясно +25.0 +13.9 50 +27 +32 жарко 1011.5 984.7
Ю 3 16 км ясно +23.9 +13.3 51 +26 +29 жарко 1011.5 984.4
Ю 2 16 км ясно +22.2 +13.9 59 +25 +26 комфорт 1011.6 984.7
ЮВ 3 16 км ясно +18.9 +13.9 73 +20 +20 1012.1 985.0
В 3 16 км ясно +17.8 +13.9 78 +18 +18 1012.5 985.4
ЮВ 4 16 км ясно +16.7 +13.9 84 +16 +16 1013.0 986.0 +16.7 +26.1
ЮВ 3 16 км ясно +15.6 +13.9 90 +15 +15 1013.0 986.0
ЮВ 3 14 км ясно +15.0 +13.9 93 +14 +14 1012.8 985.7
ЮВ 3 10 км дымка 10/10 180 м +15.0 +13.9 93 +14 +14 1012.7 985.7
ЮВ 3 11 км 10/10 690 м +15.0 +13.9 93 +14 +14 985.7
ЮВ 4 10 км дымка 10/10 690 м +15.0 +13.9 93 +14 +14 1012.4 985.4
ЮВ 4 4 км дымка 10/10 120 м +15.0 +13.9 93 +14 +14 985.4
Ю 4 4 км дымка 10/10 90 м +14.4 +13.9 97 +13 +13 1012.6 985.7
Ю 3 6 км дымка 10/10 90 м +14.4 +13.9 97 +13 +13 1013.0 986.0 +14.4 +16.7
Ю 2 10 км дымка 10/10 90 м +14.4 +13.3 93 +14 +14 1013.6 986.4
ЮЗ 2 8 км дымка 10/10 120 м +14.4 +13.3 93 +14 +14 1013.9 986.7
Ю 2 8 км дымка 10/10 150 м +15.0 +13.3 90 +15 +15 986.7
Ю 2 10 км дымка 10/10 210 м +15.0 +13.3 90 +15 +15 1014.1 987.0
нст 2 10 км мгла 10/10 270 м +16.1 +13.3 83 +16 +16 1014.6 987.4
штиль 0 8 км мгла 10/10 300 м +16.7 +13.3 80 +17 +17 987.4
штиль 0 8 км мгла 10/10 360 м +16.7 +13.3 80 +17 +17 1014.6 987.4
Ю 2 11 км 8/8 450 м +18.9 +13.3 70 +20 +23 987.4
З 3 6 км мгла 5/5 510 м +19.4 +13.3 68 +21 +27 комфорт 1014.7 987.4 +14.4 +19.4
ЮЗ 3 11 км ясно +22.8 +13.9 57 +26 +41 жарко 1014.5 987.4
ЮВ 4 10 км мгла ясно +23.9 +13.9 54 +26 +40 жарко 1014.0 987.0
Ю 5 16 км ясно +25.6 +13.3 46 +28 +39 жарко 1013.8 986.7
Ю 4 16 км ясно +25.0 +12.8 47 +27 +40 жарко 1013.7 986.7
нст 3 16 км ясно +25.6 +12.8 45 +27 +41 жарко 1013.2 986.0
Ю 5 16 км ясно +25.6 +11.7 42 +27 +33 жарко 1013.0 986.0 +18.9 +27.2
Ю 4 16 км ясно +23.9 +12.2 48 +26 +31 жарко 1012.6 985.7
ЮВ 3 16 км ясно +22.2 +12.8 55 +25 +28 комфорт 1013.1 986.0
Ю 4 16 км ясно +18.9 +13.3 70 +20 +20 1013.7 986.4
ЮВ 4 16 км ясно +18.3 +13.3 73 +19 +19 1013.9 986.7
В 2 16 км ясно +17.2 +13.9 81 +18 +18 1014.1 987.0
ЮВ 3 16 км ясно +16.7 +13.9 84 +16 +16 1014.2 987.0 +16.7 +25.6
В 4 16 км ясно +16.1 +13.9 87 +15 +15 1014.0 987.0
В 4 16 км 5/5 210 м +15.6 +13.3 86 +15 +15 987.0
ЮВ 3 16 км н/о +15.6 +13.9 90 +15 +15 1013.9 986.7
В 3 13 км 8/8 270 м +15.0 +13.9 93 +14 +14 986.7
ЮВ 4 13 км 8/8 270 м +15.0 +13.9 93 +14 +14 1013.7 986.7
ЮВ 3 11 км 10/10 180 м +15.0 +13.3 90 +14 +14 1013.3 986.4
Ю 3 13 км 10/10 180 м +15.0 +13.3 90 +14 +14 1013.3 986.4
Местоположение метеостанции Burbank Bob Hope Airport: широта 34.1997 долгота -118.3647 высота над уровнем моря 236 м.
В архиве по умолчанию представлена погода в Бербанке за последние 1-2 суток. Обновление информации о фактической погоде в базе происходит ежечасно! Архивные данные за месяц целиком и за предыдущие месяцы Вы можете получить, выбрав интересующий диапазон дат из раскрывающегося списка и нажав кнопку "Ввод!".
Внимание! Архив погоды МЕТАР в базе сайта по станциям, не включенным в климатический монитор, хранится не более 60 дней. Нет смысла пытаться выбрать более раннюю дату.
*Определитесь, кто Вы:
Внимание! Время в таблицах - местное (без учета летнего времени). Для получения всемирного времени необходимо вычесть поправку, которая равна -8 ч.
Смотрите также архив погоды в соседних городах и на ближайших метеорологических станциях:
Партнеры нашего сайта:      
Пояснения к столбцам:
  • Ветер - указаны скорость ветра в м/с - средняя за 10 мин, порывы в срок и между сроками (в фигурных скобках) и направление, откуда дует ветер: С - северный,
  • СВ - северо-восточный, В - восточный, ЮВ - юго-восточный, Ю - южный, ЮЗ - юго-западный, З - западный, СЗ - северо-западный.
  • Видимость - горизонтальная дальность видимости в метрах или километрах. При видимости от 1 до 10 км при отсутствии осадков обычно наблюдается дымка, при ухудшении видимости до 1 км и менее - туман. В сухую погоду видимость может ухудшаться дымом, пылью или мглою.
  • Явления - указаны атмосферные явления, наблюдавшиеся в срок или в последний час перед сроком; фигурными скобками обозначены явления, наблюдавшиеся между сроками (за 1-3 часа до срока); квадратными скобками обозначены град или гололедные отложения с указанием их диаметра в мм.
  • Облачность - указаны через наклонную черту общая и нижняя облачность в баллах и высота нижней границы облаков в метрах; квадратными скобками обозначены формы облаков: Ci - перистые, Cs - перисто-слоистые, Cc - перисто-кучевые, Ac - высококучевые, As - высокослоистые, Sc - слоисто-кучевые, Ns - слоисто-дождевые, Cu - кучевые, Cb - кучево-дождевые. Подробнее классификацию облаков см. в Атласе облаков (PDF).
  • T - Температура воздуха - температура, измеренная на высоте 2 м над землей.
  • Td - Температура точки росы - температура, при понижении до которой содержащийся в воздухе водяной пар достигнет насыщения.
  • f - Относительная влажность воздуха - влажноcть воздуха, измеренная на высоте 2 м над землей.
  • Te - Эффективная температура - температура, которую ощущает одетый по сезону человек в тени. Характеристика душности погоды. При расчете учитывается влияние влажности воздуха и скорости ветра на теплоощущения человека.
  • Tes - Эффективная температура на солнце - температура, которую ощущает человек, с поправкой на солнечный нагрев. Характеристика знойности погоды. Зависит от высоты солнца над горизонтом, облачности и скорости ветра. Ночью, в пасмурную погоду, а также при ветре 12 м/с и более поправка равна нулю.
  • P - Атмосферное давление - приведенное к уровню моря атмосферное давление.
  • Po - Атмосферное давление - измеренное на уровне метеостанции атмосферное давление.
  • Tmin - Минимальная температура - минимум температуры воздуха на высоте 2 м над землей.
  • Tmax - Максимальная температура - максимум температуры воздуха на высоте 2 м над землей.
  • R - Количество осадков - Количество выпавших осадков за период времени, мм. При наведении курсора мыши на число - период времени, за который выпало указанное количество осадков.
  • R24 - Количество осадков - Количество выпавших осадков за 24 часа, мм.
  • S - Снежный покров - Высота снежного покрова, см. При наведении курсора мыши на число - состояние снежного покрова и степень покрытия местности в баллах.